FW9333 Weather Reports


time (UTC)temp
C
wind
direction
speed
KPH
gust
KPH
rain 1hr
cm
rain 24hr
cm
rain mn
cm
humidity
%
barometer
mb
20260503184603 14 89 0.0 4.8 0.00 0.00 0.00 37 1016.5
20260503183049 14 130 3.2 11.3 0.00 0.00 0.00 41 1016.6
20260503181546 14 37 0.0 9.7 0.00 0.00 0.00 39 1016.8
20260503180040 13 38 1.6 12.9 0.00 0.00 0.00 41 1017.0
20260503174539 13 74 0.0 9.7 0.00 0.00 0.00 38 1017.2
20260503173040 13 96 0.0 6.4 0.00 0.00 0.00 41 1017.4
20260503171559 13 45 3.2 19.3 0.00 0.00 0.00 44 1017.4
20260503081537 2 130 0.0 0.0 0.00 0.00 0.00 84 1017.2
20260503071524 3 130 0.0 0.0 0.00 0.00 0.00 81 1016.7
20260503054522 5 115 0.0 1.6 0.00 0.00 0.00 78 1016.6
20260503053016 5 113 0.0 0.0 0.00 0.00 0.00 79 1016.6
20260503051514 5 113 0.0 0.0 0.00 0.00 0.00 78 1016.6
20260503050014 5 113 0.0 3.2 0.00 0.00 0.00 78 1016.7
20260503044524 5 360 0.0 0.0 0.00 0.00 0.00 78 1016.8
20260503043021 5 317 0.0 0.0 0.00 0.00 0.00 78 1016.8
20260503041511 5 315 0.0 0.0 0.00 0.00 0.00 78 1016.8
20260503040011 5 315 0.0 0.0 0.00 0.00 0.00 77 1016.7
20260503034508 5 315 0.0 0.0 0.00 0.00 0.00 77 1016.8
20260503033008 5 315 0.0 0.0 0.00 0.00 0.00 77 1016.7
20260503031507 5 315 0.0 0.0 0.00 0.00 0.00 76 1016.7
20260503030008 5 315 0.0 0.0 0.00 0.00 0.00 76 1016.7
20260503024507 6 315 0.0 0.0 0.00 0.00 0.00 76 1016.7
20260503023006 6 315 0.0 1.6 0.00 0.00 0.00 75 1016.8
20260503021505 6 315 0.0 3.2 0.00 0.00 0.00 75 1016.8
20260503020007 6 295 0.0 3.2 0.00 0.00 0.00 75 1016.8
20260503014503 6 269 0.0 0.0 0.00 0.00 0.00 75 1016.8
20260503013002 6 269 0.0 3.2 0.00 0.00 0.00 75 1016.7
20260503011502 6 269 0.0 3.2 0.00 0.00 0.00 73 1016.6
20260503010100 6 267 0.0 0.0 0.00 0.00 0.00 75 1016.4
20260503004601 6 271 0.0 3.2 0.00 0.03 0.00 74 1016.2
20260503003058 6 335 0.0 4.8 0.00 0.03 0.00 73 1016.0
20260503001558 6 269 1.6 4.8 0.00 0.03 0.00 72 1015.8
20260503000107 7 329 0.0 3.2 0.00 0.03 0.00 72 1015.7
20260502234604 7 299 0.0 4.8 0.00 0.03 0.00 71 1015.6
20260502233058 7 18 0.0 8.0 0.00 0.03 0.00 68 1015.5
20260502231556 8 14 1.6 8.0 0.00 0.03 0.00 67 1015.3
20260502230056 8 5 0.0 4.8 0.00 0.03 0.00 69 1015.1
20260502224556 8 330 1.6 6.4 0.00 0.10 0.00 68 1015.0
20260502223055 8 312 0.0 6.4 0.00 0.10 0.00 66 1014.9
20260502221609 9 313 0.0 3.2 0.00 0.10 0.00 65 1014.8
20260502214554 10 332 3.2 8.0 0.00 0.10 0.00 59 1014.4
20260502213053 10 17 0.0 8.0 0.00 0.10 0.00 55 1014.3
20260502211553 10 11 0.0 6.4 0.00 0.10 0.00 57 1014.1
20260502210108 10 146 0.0 1.6 0.00 0.10 0.00 56 1014.0
20260502204552 10 311 0.0 1.6 0.00 0.10 0.00 59 1014.2
20260502203052 10 22 1.6 8.0 0.00 0.10 0.00 55 1014.1
20260502201552 10 208 0.0 9.7 0.00 0.10 0.00 52 1014.1
20260502200110 10 5 0.0 8.0 0.00 0.10 0.00 54 1014.2
20260502194549 10 320 0.0 4.8 0.00 0.10 0.00 56 1014.2
20260502193050 10 15 1.6 9.7 0.00 0.10 0.00 55 1014.4
20260502191556 10 22 1.6 14.5 0.00 0.10 0.00 53 1014.6
20260502190049 10 136 0.0 8.0 0.00 0.10 0.00 52 1014.6